Regional Weather Roundup
Issued by NWS

Home | Current Version | Previous Version | Text Only | Print | Product List | Glossary Off
Versions: 1 2 3 4 5 6 7 8 9 10 11 12 13 14 15 16 17 18 19 20 21 22 23 24 25 26 27 28 29 30 31 32 33 34 35 36 37 38 39 40 41 42 43 44 45 46 47 48 49 50

000
ASUS43 KTOP 262159
RWRKS

WEATHER ROUNDUP FOR KANSAS
NATIONAL WEATHER SERVICE GOODLAND KS
500 PM CDT SUN APR 26 2015

NOTE:  "FAIR" INDICATES FEW OR NO CLOUDS BELOW 12,000 FEET WITH NO
SIGNIFICANT WEATHER AND/OR OBSTRUCTIONS TO VISIBILITY.

KSZ001>006-013>018-027>032-041>047-262300-
NORTHWEST KANSAS

CITY           SKY/WX    TMP DP  RH WIND       PRES   REMARKS
GOODLAND       CLOUDY    44  43  96 NE15      29.92F FOG
HAYS           CLOUDY    50  41  71 NE21      29.91S
HILL CITY      CLOUDY    49  46  90 NE13      29.94F FOG
RUSSELL        CLOUDY    50  46  86 E20       29.89F
$$

KSZ061>065-074>080-084>089-262300-
SOUTHWEST KANSAS

CITY           SKY/WX    TMP DP  RH WIND       PRES   REMARKS
DODGE CITY     CLOUDY    50  47  89 NE22      29.83F
ELKHART          N/A     50  44  80 E12         N/A
GARDEN CITY    CLOUDY    47  46  97 NE20      29.82F FOG
GREAT BEND     CLOUDY    52  45  76 NE17      29.88S
LIBERAL        CLOUDY    48  46  93 NE16      29.81R
$$

KSZ066>073-081>083-090>101-262300-
SOUTHEAST KANSAS

CITY           SKY/WX    TMP DP  RH WIND       PRES   REMARKS
CHANUTE        CLOUDY    56  46  69 E15G22    29.87F
COFFEYVILLE    CLOUDY    58  49  72 NE17G23   29.84F
HUTCHINSON     CLOUDY    54  45  71 NE14G26   29.86S
MEDICINE LODGE   N/A     57  48  72 NE17G25   29.80S
NEWTON         CLOUDY    52  43  71 E13G24    29.89S
PARSONS        CLOUDY    58  48  69 VRB7      29.87F
WICHITA INTL   CLOUDY    56  46  69 NE21      29.85R
WICHITA JABRA  CLOUDY    54  45  71 NE22G29   29.85S
WICHITA MCCONL CLOUDY    55  46  71 E21       29.84S
WINFIELD       CLOUDY    60  48  64 NE18      29.84R
$$

KSZ007>012-019>026-033>040-048>060-102>105-262300-
NORTHEAST KANSAS

CITY           SKY/WX    TMP DP  RH WIND       PRES   REMARKS
CONCORDIA      CLOUDY    53  43  68 E13       29.95F
EMPORIA        MOSUNNY   56  45  66 E20G25    29.89F
LAWRENCE       SUNNY     62  45  53 E8G17     29.93F
MANHATTAN      PTSUNNY   58  46  64 E12       29.93F
OLATHE IND     SUNNY     60  43  53 E12       29.92F
OLATHE EXE     MOSUNNY   61  44  53 NE13G21   29.91F
SALINA         CLOUDY    55  44  66 NE10      29.90F
TOPEKA BILLARD MOSUNNY   61  45  55 E13       29.93F
TOPEKA FORBES  PTSUNNY   61  45  55 NE12      29.92F
$$


USA.gov is the U.S. government's official web portal to all federal, state and local government web resources and services.